Location: PACMO
(41.3967°N, 90.3760°W)
Time: 23:42:22
(UTC-05:00)

NOAA 19 - Visible Passes

Search period start: 02 September 2014 00:00
Search period end: 12 September 2014 00:00
Orbit: 843 x 863 km, 98.9° (Epoch: 07 September)

Date Brightness Start Highest point End Pass type
(mag) Time Alt. Az. Time Alt. Az. Time Alt. Az.
02 Sep 6.4 02:46:16 10° NNE 02:50:25 38° ENE 02:50:25 38° ENE visible
02 Sep 6.3 04:27:29 10° N 04:32:02 27° WNW 04:32:28 26° WNW visible
03 Sep 6.7 02:35:24 10° NNE 02:39:07 31° ENE 02:39:07 31° ENE visible
03 Sep 6.1 04:16:12 10° N 04:21:05 33° WNW 04:21:11 33° WNW visible
04 Sep 7.1 02:24:36 10° NE 02:27:50 25° ENE 02:27:50 25° ENE visible
04 Sep 5.8 04:04:59 10° N 04:09:53 40° WNW 04:09:53 40° WNW visible
05 Sep 7.3 02:13:54 10° NE 02:16:33 20° ENE 02:16:33 20° ENE visible
05 Sep 5.6 03:53:48 10° N 03:58:36 48° NW 03:58:36 48° NW visible
06 Sep 7.6 02:03:20 10° NE 02:05:15 16° ENE 02:05:15 16° ENE visible
06 Sep 5.5 03:42:39 10° N 03:47:18 55° NNW 03:47:18 55° NNW visible
07 Sep 7.8 01:53:01 10° ENE 01:53:58 12° ENE 01:53:58 12° ENE visible
07 Sep 5.6 03:31:33 10° N 03:36:01 58° N 03:36:01 58° N visible
07 Sep 7.2 05:15:10 10° NW 05:16:53 11° NW 05:18:04 11° WNW visible
08 Sep 5.8 03:20:29 10° NNE 03:24:43 54° NNE 03:24:43 54° NNE visible
08 Sep 7.0 05:03:12 10° NNW 05:06:00 14° WNW 05:06:46 14° WNW visible
09 Sep 6.1 03:09:27 10° NNE 03:13:25 47° NE 03:13:25 47° NE visible
09 Sep 6.8 04:51:35 10° NNW 04:55:07 18° WNW 04:55:28 18° WNW visible
10 Sep 6.4 02:58:28 10° NNE 03:02:07 39° NE 03:02:07 39° NE visible
10 Sep 6.6 04:40:08 10° NNW 04:44:11 22° WNW 04:44:11 22° WNW visible
11 Sep 6.8 02:47:32 10° NNE 02:50:50 32° NE 02:50:50 32° NE visible
11 Sep 6.4 04:28:46 10° N 04:32:53 26° WNW 04:32:53 26° WNW visible
